Year,Month,Day,Hour,Minute,Value (Times are PST for temperature in C)
2016,06,06,00,00,19.70
2016,06,06,00,01,19.70
2016,06,06,00,02,19.70
2016,06,06,00,03,19.70
2016,06,06,00,04,19.70
2016,06,06,00,05,19.70
2016,06,06,00,06,19.70
2016,06,06,00,07,19.70
2016,06,06,00,08,19.70
2016,06,06,00,09,19.80
2016,06,06,00,10,19.80
2016,06,06,00,11,19.80
2016,06,06,00,12,19.90
2016,06,06,00,13,19.90
2016,06,06,00,14,19.90
2016,06,06,00,15,19.90
2016,06,06,00,16,19.90
2016,06,06,00,17,19.90
2016,06,06,00,18,19.90
2016,06,06,00,19,19.90
2016,06,06,00,20,19.90
2016,06,06,00,21,19.90
2016,06,06,00,22,19.90
2016,06,06,00,23,19.90
2016,06,06,00,24,19.90
2016,06,06,00,25,19.90
2016,06,06,00,26,19.80
2016,06,06,00,27,19.90
2016,06,06,00,28,19.90
2016,06,06,00,29,19.90
2016,06,06,00,30,19.90
2016,06,06,00,31,19.90
2016,06,06,00,32,19.90
2016,06,06,00,33,19.90
2016,06,06,00,34,19.90
2016,06,06,00,35,19.90
2016,06,06,00,36,19.90
2016,06,06,00,37,19.90
2016,06,06,00,38,19.90
2016,06,06,00,39,19.90
2016,06,06,00,40,19.90
2016,06,06,00,41,19.80
2016,06,06,00,42,19.80
2016,06,06,00,43,19.80
2016,06,06,00,44,19.80
2016,06,06,00,45,19.80
2016,06,06,00,46,19.80
2016,06,06,00,47,19.70
2016,06,06,00,48,19.70
2016,06,06,00,49,19.70
2016,06,06,00,50,19.70
2016,06,06,00,51,19.70
2016,06,06,00,52,19.70
2016,06,06,00,53,19.70
2016,06,06,00,54,19.70
2016,06,06,00,55,19.70
2016,06,06,00,56,19.70
2016,06,06,00,57,19.70
2016,06,06,00,58,19.70
2016,06,06,00,59,19.70
2016,06,06,01,00,19.70
2016,06,06,01,01,19.70
2016,06,06,01,02,19.70
2016,06,06,01,03,19.70
2016,06,06,01,04,19.70
2016,06,06,01,05,19.80
2016,06,06,01,06,19.80
2016,06,06,01,07,19.80
2016,06,06,01,08,19.80
2016,06,06,01,09,19.80
2016,06,06,01,10,19.70
2016,06,06,01,11,19.70
2016,06,06,01,12,19.70
2016,06,06,01,13,19.70
2016,06,06,01,14,19.70
2016,06,06,01,15,19.70
2016,06,06,01,16,19.70
2016,06,06,01,17,19.70
2016,06,06,01,18,19.70
2016,06,06,01,19,19.70
2016,06,06,01,20,19.70
2016,06,06,01,21,19.70
2016,06,06,01,22,19.70
2016,06,06,01,23,19.70
2016,06,06,01,24,19.70
2016,06,06,01,25,19.70
2016,06,06,01,26,19.60
2016,06,06,01,27,19.60
2016,06,06,01,28,19.60
2016,06,06,01,29,19.60
2016,06,06,01,30,19.60
2016,06,06,01,31,19.60
2016,06,06,01,32,19.60
2016,06,06,01,33,19.60
2016,06,06,01,34,19.60
2016,06,06,01,35,19.60
2016,06,06,01,36,19.60
2016,06,06,01,37,19.60
2016,06,06,01,38,19.50
2016,06,06,01,39,19.50
2016,06,06,01,40,19.50
2016,06,06,01,41,19.50
2016,06,06,01,42,19.50
2016,06,06,01,43,19.50
2016,06,06,01,44,19.50
2016,06,06,01,45,19.50
2016,06,06,01,46,19.50
2016,06,06,01,47,19.60
2016,06,06,01,48,19.60
2016,06,06,01,49,19.60
2016,06,06,01,50,19.60
2016,06,06,01,51,19.60
2016,06,06,01,52,19.70
2016,06,06,01,53,19.70
2016,06,06,01,54,19.70
2016,06,06,01,55,19.70
2016,06,06,01,56,19.70
2016,06,06,01,57,19.70
2016,06,06,01,58,19.70
2016,06,06,01,59,19.70
2016,06,06,02,00,19.70
2016,06,06,02,01,19.70
2016,06,06,02,02,19.70
2016,06,06,02,03,19.70
2016,06,06,02,04,19.70
2016,06,06,02,05,19.70
2016,06,06,02,06,19.70
2016,06,06,02,07,19.70
2016,06,06,02,08,19.60
2016,06,06,02,09,19.60
2016,06,06,02,10,19.60
2016,06,06,02,11,19.60
2016,06,06,02,12,19.60
2016,06,06,02,13,19.60
2016,06,06,02,14,19.60
2016,06,06,02,15,19.50
2016,06,06,02,16,19.50
2016,06,06,02,17,19.40
2016,06,06,02,18,19.40
2016,06,06,02,19,19.40
2016,06,06,02,20,19.30
2016,06,06,02,21,19.30
2016,06,06,02,22,19.20
2016,06,06,02,23,19.20
2016,06,06,02,24,19.10
2016,06,06,02,25,19.10
2016,06,06,02,26,19.00
2016,06,06,02,27,19.00
2016,06,06,02,28,18.90
2016,06,06,02,29,18.90
2016,06,06,02,30,18.80
2016,06,06,02,31,18.80
2016,06,06,02,32,18.70
2016,06,06,02,33,18.70
2016,06,06,02,34,18.70
2016,06,06,02,35,18.60
2016,06,06,02,36,18.60
2016,06,06,02,37,18.60
2016,06,06,02,38,18.60
2016,06,06,02,39,18.60
2016,06,06,02,40,18.60
2016,06,06,02,41,18.50
2016,06,06,02,42,18.60
2016,06,06,02,43,18.60
2016,06,06,02,44,18.60
2016,06,06,02,45,18.60
2016,06,06,02,46,18.60
2016,06,06,02,47,18.60
2016,06,06,02,48,18.60
2016,06,06,02,49,18.60
2016,06,06,02,50,18.60
2016,06,06,02,51,18.60
2016,06,06,02,52,18.60
2016,06,06,02,53,18.50
2016,06,06,02,54,18.50
2016,06,06,02,55,18.50
2016,06,06,02,56,18.50
2016,06,06,02,57,18.40
2016,06,06,02,58,18.40
2016,06,06,02,59,18.40
2016,06,06,03,00,18.40
2016,06,06,03,01,18.30
2016,06,06,03,02,18.30
2016,06,06,03,03,18.30
2016,06,06,03,04,18.30
2016,06,06,03,05,18.20
2016,06,06,03,06,18.20
2016,06,06,03,07,18.20
2016,06,06,03,08,18.20
2016,06,06,03,09,18.20
2016,06,06,03,10,18.20
2016,06,06,03,11,18.20
2016,06,06,03,12,18.20
2016,06,06,03,13,18.20
2016,06,06,03,14,18.20
2016,06,06,03,15,18.30
2016,06,06,03,16,18.30
2016,06,06,03,17,18.30
2016,06,06,03,18,18.30
2016,06,06,03,19,18.30
2016,06,06,03,20,18.20
2016,06,06,03,21,18.20
2016,06,06,03,22,18.20
2016,06,06,03,23,18.20
2016,06,06,03,24,18.20
2016,06,06,03,25,18.20
2016,06,06,03,26,18.20
2016,06,06,03,27,18.20
2016,06,06,03,28,18.20
2016,06,06,03,29,18.10
2016,06,06,03,30,18.10
2016,06,06,03,31,18.10
2016,06,06,03,32,18.10
2016,06,06,03,33,18.00
2016,06,06,03,34,18.00
2016,06,06,03,35,18.00
2016,06,06,03,36,18.00
2016,06,06,03,37,17.90
2016,06,06,03,38,17.90
2016,06,06,03,39,17.90
2016,06,06,03,40,17.90
2016,06,06,03,41,17.90
2016,06,06,03,42,17.80
2016,06,06,03,43,17.80
2016,06,06,03,44,17.80
2016,06,06,03,45,17.80
2016,06,06,03,46,17.80
2016,06,06,03,47,17.80
2016,06,06,03,48,17.80
2016,06,06,03,49,17.80
2016,06,06,03,50,17.80
2016,06,06,03,51,17.70
2016,06,06,03,52,17.70
2016,06,06,03,53,17.70
2016,06,06,03,54,17.70
2016,06,06,03,55,17.60
2016,06,06,03,56,17.60
2016,06,06,03,57,17.60
2016,06,06,03,58,17.60
2016,06,06,03,59,17.60
2016,06,06,04,00,17.50
2016,06,06,04,01,17.50
2016,06,06,04,02,17.50
2016,06,06,04,03,17.40
2016,06,06,04,04,17.40
2016,06,06,04,05,17.40
2016,06,06,04,06,17.40
2016,06,06,04,07,17.40
2016,06,06,04,08,17.40
2016,06,06,04,09,17.40
2016,06,06,04,10,17.40
2016,06,06,04,11,17.40
2016,06,06,04,12,17.40
2016,06,06,04,13,17.40
2016,06,06,04,14,17.40
2016,06,06,04,15,17.40
2016,06,06,04,16,17.40
2016,06,06,04,17,17.40
2016,06,06,04,18,17.40
2016,06,06,04,19,17.40
2016,06,06,04,20,17.40
2016,06,06,04,21,17.40
2016,06,06,04,22,17.40
2016,06,06,04,23,17.40
2016,06,06,04,24,17.40
2016,06,06,04,25,17.40
2016,06,06,04,26,17.40
2016,06,06,04,27,17.40
2016,06,06,04,28,17.40
2016,06,06,04,29,17.40
2016,06,06,04,30,17.30
2016,06,06,04,31,17.30
2016,06,06,04,32,17.30
2016,06,06,04,33,17.30
2016,06,06,04,34,17.20
2016,06,06,04,35,17.20
2016,06,06,04,36,17.20
2016,06,06,04,37,17.10
2016,06,06,04,38,17.10
2016,06,06,04,39,17.00
2016,06,06,04,40,17.00
2016,06,06,04,41,16.90
2016,06,06,04,42,16.90
2016,06,06,04,43,16.90
2016,06,06,04,44,16.90
2016,06,06,04,45,16.80
2016,06,06,04,46,16.80
2016,06,06,04,47,16.80
2016,06,06,04,48,16.80
2016,06,06,04,49,16.80
2016,06,06,04,50,16.80
2016,06,06,04,51,16.70
2016,06,06,04,52,16.70
2016,06,06,04,53,16.70
2016,06,06,04,54,16.70
2016,06,06,04,55,16.70
2016,06,06,04,56,16.70
2016,06,06,04,57,16.60
2016,06,06,04,58,16.60
2016,06,06,04,59,16.60
2016,06,06,05,00,16.60
2016,06,06,05,01,16.60
2016,06,06,05,02,16.50
2016,06,06,05,03,16.50
2016,06,06,05,04,16.50
2016,06,06,05,05,16.40
2016,06,06,05,06,16.40
2016,06,06,05,07,16.40
2016,06,06,05,08,16.40
2016,06,06,05,09,16.30
2016,06,06,05,10,16.30
2016,06,06,05,11,16.30
2016,06,06,05,12,16.20
2016,06,06,05,13,16.20
2016,06,06,05,14,16.10
2016,06,06,05,15,16.10
2016,06,06,05,16,16.00
2016,06,06,05,17,15.90
2016,06,06,05,18,15.90
2016,06,06,05,19,15.80
2016,06,06,05,20,15.80
2016,06,06,05,21,15.70
2016,06,06,05,22,15.70
2016,06,06,05,23,15.60
2016,06,06,05,24,15.60
2016,06,06,05,25,15.50
2016,06,06,05,26,15.50
2016,06,06,05,27,15.40
2016,06,06,05,28,15.40
2016,06,06,05,29,15.40
2016,06,06,05,30,15.30
2016,06,06,05,31,15.30
2016,06,06,05,32,15.30
2016,06,06,05,33,15.20
2016,06,06,05,34,15.20
2016,06,06,05,35,15.20
2016,06,06,05,36,15.10
2016,06,06,05,37,15.10
2016,06,06,05,38,15.10
2016,06,06,05,39,15.10
2016,06,06,05,40,15.00
2016,06,06,05,41,15.00
2016,06,06,05,42,15.00
2016,06,06,05,43,14.90
2016,06,06,05,44,14.90
2016,06,06,05,45,14.90
2016,06,06,05,46,14.90
2016,06,06,05,47,14.90
2016,06,06,05,48,14.90
2016,06,06,05,49,14.80
2016,06,06,05,50,14.80
2016,06,06,05,51,14.80
2016,06,06,05,52,14.80
2016,06,06,05,53,14.80
2016,06,06,05,54,14.80
2016,06,06,05,55,14.80
2016,06,06,05,56,14.80
2016,06,06,05,57,14.80
2016,06,06,05,58,14.80
2016,06,06,05,59,14.70
2016,06,06,06,00,14.70
2016,06,06,06,01,14.70
2016,06,06,06,02,14.70
2016,06,06,06,03,14.70
2016,06,06,06,04,14.70
2016,06,06,06,05,14.70
2016,06,06,06,06,14.60
2016,06,06,06,07,14.60
2016,06,06,06,08,14.60
2016,06,06,06,09,14.60
2016,06,06,06,10,14.60
2016,06,06,06,11,14.60
2016,06,06,06,12,14.60
2016,06,06,06,13,14.60
2016,06,06,06,14,14.60
2016,06,06,06,15,14.60
2016,06,06,06,16,14.60
2016,06,06,06,17,14.60
2016,06,06,06,18,14.60
2016,06,06,06,19,14.60
2016,06,06,06,20,14.60
2016,06,06,06,21,14.60
2016,06,06,06,22,14.60
2016,06,06,06,23,14.60
2016,06,06,06,24,14.70
2016,06,06,06,25,14.70
2016,06,06,06,26,14.70
2016,06,06,06,27,14.70
2016,06,06,06,28,14.70
2016,06,06,06,29,14.80
2016,06,06,06,30,14.80
2016,06,06,06,31,14.80
2016,06,06,06,32,14.80
2016,06,06,06,33,14.80
2016,06,06,06,34,14.80
2016,06,06,06,35,14.80
2016,06,06,06,36,14.90
2016,06,06,06,37,14.90
2016,06,06,06,38,14.90
2016,06,06,06,39,14.90
2016,06,06,06,40,15.00
2016,06,06,06,41,15.00
2016,06,06,06,42,15.10
2016,06,06,06,43,15.10
2016,06,06,06,44,15.10
2016,06,06,06,45,15.20
2016,06,06,06,46,15.20
2016,06,06,06,47,15.30
2016,06,06,06,48,15.30
2016,06,06,06,49,15.40
2016,06,06,06,50,15.50
2016,06,06,06,51,15.50
2016,06,06,06,52,15.60
2016,06,06,06,53,15.70
2016,06,06,06,54,15.70
2016,06,06,06,55,15.80
2016,06,06,06,56,15.90
2016,06,06,06,57,16.00
2016,06,06,06,58,16.10
2016,06,06,06,59,16.20
2016,06,06,07,00,16.30
2016,06,06,07,01,16.30
2016,06,06,07,02,16.40
2016,06,06,07,03,16.50
2016,06,06,07,04,16.60
2016,06,06,07,05,16.70
2016,06,06,07,06,16.80
2016,06,06,07,07,16.80
2016,06,06,07,08,16.90
2016,06,06,07,09,17.00
2016,06,06,07,10,17.10
2016,06,06,07,11,17.10
2016,06,06,07,12,17.20
2016,06,06,07,13,17.20
2016,06,06,07,14,17.30
2016,06,06,07,15,17.40
2016,06,06,07,16,17.50
2016,06,06,07,17,17.50
2016,06,06,07,18,17.60
2016,06,06,07,19,17.70
2016,06,06,07,20,17.80
2016,06,06,07,21,17.90
2016,06,06,07,22,17.90
2016,06,06,07,23,17.90
2016,06,06,07,24,18.00
2016,06,06,07,25,17.90
2016,06,06,07,26,17.90
2016,06,06,07,27,17.90
2016,06,06,07,28,17.90
2016,06,06,07,29,17.90
2016,06,06,07,30,17.80
2016,06,06,07,31,17.80
2016,06,06,07,32,17.70
2016,06,06,07,33,17.70
2016,06,06,07,34,17.60
2016,06,06,07,35,17.50
2016,06,06,07,36,17.40
2016,06,06,07,37,17.30
2016,06,06,07,38,17.20
2016,06,06,07,39,17.10
2016,06,06,07,40,17.00
2016,06,06,07,41,16.90
2016,06,06,07,42,16.80
2016,06,06,07,43,16.70
2016,06,06,07,44,16.60
2016,06,06,07,45,16.60
2016,06,06,07,46,16.50
2016,06,06,07,47,16.50
2016,06,06,07,48,16.50
2016,06,06,07,49,16.40
2016,06,06,07,50,16.40
2016,06,06,07,51,16.30
2016,06,06,07,52,16.30
2016,06,06,07,53,16.20
2016,06,06,07,54,16.20
2016,06,06,07,55,16.20
2016,06,06,07,56,16.20
2016,06,06,07,57,16.20
2016,06,06,07,58,16.20
2016,06,06,07,59,16.20
2016,06,06,08,00,16.20
2016,06,06,08,01,16.20
2016,06,06,08,02,16.20
2016,06,06,08,03,16.20
2016,06,06,08,04,16.20
2016,06,06,08,05,16.20
2016,06,06,08,06,16.30
2016,06,06,08,07,16.30
2016,06,06,08,08,16.40
2016,06,06,08,09,16.40
2016,06,06,08,10,16.40
2016,06,06,08,11,16.50
2016,06,06,08,12,16.50
2016,06,06,08,13,16.50
2016,06,06,08,14,16.50
2016,06,06,08,15,16.50
2016,06,06,08,16,16.50
2016,06,06,08,17,16.50
2016,06,06,08,18,16.40
2016,06,06,08,19,16.40
2016,06,06,08,20,16.30
2016,06,06,08,21,16.30
2016,06,06,08,22,16.30
2016,06,06,08,23,16.30
2016,06,06,08,24,16.20
2016,06,06,08,25,16.20
2016,06,06,08,26,16.20
2016,06,06,08,27,16.10
2016,06,06,08,28,16.10
2016,06,06,08,29,16.00
2016,06,06,08,30,16.00
2016,06,06,08,31,16.00
2016,06,06,08,32,15.90
2016,06,06,08,33,15.90
2016,06,06,08,34,15.90
2016,06,06,08,35,16.00
2016,06,06,08,36,16.00
2016,06,06,08,37,16.10
2016,06,06,08,38,16.10
2016,06,06,08,39,16.10
2016,06,06,08,40,16.10
2016,06,06,08,41,16.10
2016,06,06,08,42,16.20
2016,06,06,08,43,16.20
2016,06,06,08,44,16.20
2016,06,06,08,45,16.30
2016,06,06,08,46,16.30
2016,06,06,08,47,16.40
2016,06,06,08,48,16.40
2016,06,06,08,49,16.40
2016,06,06,08,50,16.40
2016,06,06,08,51,16.40
2016,06,06,08,52,16.50
2016,06,06,08,53,16.50
2016,06,06,08,54,16.60
2016,06,06,08,55,16.60
2016,06,06,08,56,16.60
2016,06,06,08,57,16.60
2016,06,06,08,58,16.60
2016,06,06,08,59,16.60
2016,06,06,09,00,16.60
2016,06,06,09,01,16.60
2016,06,06,09,02,16.60
2016,06,06,09,03,16.70
2016,06,06,09,04,16.70
2016,06,06,09,05,16.70
2016,06,06,09,06,16.80
2016,06,06,09,07,16.70
2016,06,06,09,08,16.70
2016,06,06,09,09,16.70
2016,06,06,09,10,16.70
2016,06,06,09,11,16.70
2016,06,06,09,12,16.80
2016,06,06,09,13,16.80
2016,06,06,09,14,16.80
2016,06,06,09,15,16.80
2016,06,06,09,16,16.90
2016,06,06,09,17,17.00
2016,06,06,09,18,17.10
2016,06,06,09,19,17.10
2016,06,06,09,20,17.20
2016,06,06,09,21,17.30
2016,06,06,09,22,17.30
2016,06,06,09,23,17.40
2016,06,06,09,24,17.40
2016,06,06,09,25,17.40
2016,06,06,09,26,17.50
2016,06,06,09,27,17.50
2016,06,06,09,28,17.50
2016,06,06,09,29,17.60
2016,06,06,09,30,17.60
2016,06,06,09,31,17.60
2016,06,06,09,32,17.60
2016,06,06,09,33,17.70
2016,06,06,09,34,17.80
2016,06,06,09,35,17.90
2016,06,06,09,36,17.90
2016,06,06,09,37,18.00
2016,06,06,09,38,18.10
2016,06,06,09,39,18.20
2016,06,06,09,40,18.20
2016,06,06,09,41,18.30
2016,06,06,09,42,18.40
2016,06,06,09,43,18.50
2016,06,06,09,44,18.60
2016,06,06,09,45,18.70
2016,06,06,09,46,18.70
2016,06,06,09,47,18.80
2016,06,06,09,48,18.90
2016,06,06,09,49,19.00
2016,06,06,09,50,19.00
2016,06,06,09,51,19.10
2016,06,06,09,52,19.10
2016,06,06,09,53,19.10
2016,06,06,09,54,19.10
2016,06,06,09,55,19.10
2016,06,06,09,56,19.20
2016,06,06,09,57,19.20
2016,06,06,09,58,19.10
2016,06,06,09,59,19.10
2016,06,06,10,00,19.10
2016,06,06,10,01,19.10
2016,06,06,10,02,19.10
2016,06,06,10,03,19.00
2016,06,06,10,04,18.90
2016,06,06,10,05,18.80
2016,06,06,10,06,18.70
2016,06,06,10,07,18.60
2016,06,06,10,08,18.50
2016,06,06,10,09,18.30
2016,06,06,10,10,18.10
2016,06,06,10,11,17.90
2016,06,06,10,12,17.70
2016,06,06,10,13,17.40
2016,06,06,10,14,17.20
2016,06,06,10,15,17.00
2016,06,06,10,16,16.80
2016,06,06,10,17,16.70
2016,06,06,10,18,16.60
2016,06,06,10,19,16.60
2016,06,06,10,20,16.50
2016,06,06,10,21,16.40
2016,06,06,10,22,16.40
2016,06,06,10,23,16.40
2016,06,06,10,24,16.40
2016,06,06,10,25,16.50
2016,06,06,10,26,16.60
2016,06,06,10,27,16.70
2016,06,06,10,28,16.80
2016,06,06,10,29,16.90
2016,06,06,10,30,17.00
2016,06,06,10,31,17.10
2016,06,06,10,32,17.20
2016,06,06,10,33,17.30
2016,06,06,10,34,17.40
2016,06,06,10,35,17.40
2016,06,06,10,36,17.50
2016,06,06,10,37,17.50
2016,06,06,10,38,17.50
2016,06,06,10,39,17.50
2016,06,06,10,40,17.50
2016,06,06,10,41,17.40
2016,06,06,10,42,17.50
2016,06,06,10,43,17.40
2016,06,06,10,44,17.40
2016,06,06,10,45,17.30
2016,06,06,10,46,17.20
2016,06,06,10,47,17.10
2016,06,06,10,48,17.00
2016,06,06,10,49,16.90
2016,06,06,10,50,16.80
2016,06,06,10,51,16.70
2016,06,06,10,52,16.60
2016,06,06,10,53,16.50
2016,06,06,10,54,16.40
2016,06,06,10,55,16.40
2016,06,06,10,56,16.30
2016,06,06,10,57,16.30
2016,06,06,10,58,16.30
2016,06,06,10,59,16.30
2016,06,06,11,00,16.40
2016,06,06,11,01,16.40
2016,06,06,11,02,16.60
2016,06,06,11,03,16.70
2016,06,06,11,04,16.80
2016,06,06,11,05,16.90
2016,06,06,11,06,17.10
2016,06,06,11,07,17.20
2016,06,06,11,08,17.40
2016,06,06,11,09,17.50
2016,06,06,11,10,17.60
2016,06,06,11,11,17.80
2016,06,06,11,12,18.00
2016,06,06,11,13,18.10
2016,06,06,11,14,18.30
2016,06,06,11,15,18.50
2016,06,06,11,16,18.60
2016,06,06,11,17,18.70
2016,06,06,11,18,18.90
2016,06,06,11,19,19.00
2016,06,06,11,20,19.10
2016,06,06,11,21,19.20
2016,06,06,11,22,19.30
2016,06,06,11,23,19.40
2016,06,06,11,24,19.40
2016,06,06,11,25,19.50
2016,06,06,11,26,19.50
2016,06,06,11,27,19.50
2016,06,06,11,28,19.60
2016,06,06,11,29,19.60
2016,06,06,11,30,19.70
2016,06,06,11,31,19.80
2016,06,06,11,32,19.80
2016,06,06,11,33,19.90
2016,06,06,11,34,20.00
2016,06,06,11,35,20.10
2016,06,06,11,36,20.10
2016,06,06,11,37,20.20
2016,06,06,11,38,20.20
2016,06,06,11,39,20.20
2016,06,06,11,40,20.10
2016,06,06,11,41,20.10
2016,06,06,11,42,20.00
2016,06,06,11,43,19.90
2016,06,06,11,44,19.80
2016,06,06,11,45,19.80
2016,06,06,11,46,19.70
2016,06,06,11,47,19.70
2016,06,06,11,48,19.70
2016,06,06,11,49,19.70
2016,06,06,11,50,19.70
2016,06,06,11,51,19.70
2016,06,06,11,52,19.70
2016,06,06,11,53,19.70
2016,06,06,11,54,19.70
2016,06,06,11,55,19.70
2016,06,06,11,56,19.60
2016,06,06,11,57,19.60
2016,06,06,11,58,19.60
2016,06,06,11,59,19.50
2016,06,06,12,00,19.50
2016,06,06,12,01,19.50
2016,06,06,12,02,19.50
2016,06,06,12,03,19.50
2016,06,06,12,04,19.50
2016,06,06,12,05,19.50
2016,06,06,12,06,19.60
2016,06,06,12,07,19.60
2016,06,06,12,08,19.60
2016,06,06,12,09,19.70
2016,06,06,12,10,19.70
2016,06,06,12,11,19.70
2016,06,06,12,12,19.70
2016,06,06,12,13,19.80
2016,06,06,12,14,19.80
2016,06,06,12,15,19.80
2016,06,06,12,16,19.90
2016,06,06,12,17,20.00
2016,06,06,12,18,20.00
2016,06,06,12,19,20.00
2016,06,06,12,20,20.10
2016,06,06,12,21,20.10
2016,06,06,12,22,20.20
2016,06,06,12,23,20.20
2016,06,06,12,24,20.20
2016,06,06,12,25,20.30
2016,06,06,12,26,20.30
2016,06,06,12,27,20.40
2016,06,06,12,28,20.50
2016,06,06,12,29,20.50
2016,06,06,12,30,20.60
2016,06,06,12,31,20.70
2016,06,06,12,32,20.80
2016,06,06,12,33,20.80
2016,06,06,12,34,20.80
2016,06,06,12,35,20.80
2016,06,06,12,36,20.80
2016,06,06,12,37,20.80
2016,06,06,12,38,20.90
2016,06,06,12,39,20.90
2016,06,06,12,40,21.00
2016,06,06,12,41,21.00
2016,06,06,12,42,21.10
2016,06,06,12,43,21.10
2016,06,06,12,44,21.20
2016,06,06,12,45,21.20
2016,06,06,12,46,21.30
2016,06,06,12,47,21.30
2016,06,06,12,48,21.30
2016,06,06,12,49,21.40
2016,06,06,12,50,21.40
2016,06,06,12,51,21.50
2016,06,06,12,52,21.50
2016,06,06,12,53,21.60
2016,06,06,12,54,21.60
2016,06,06,12,55,21.70
2016,06,06,12,56,21.80
2016,06,06,12,57,21.90
2016,06,06,12,58,21.90
2016,06,06,12,59,22.00
2016,06,06,13,00,22.00
2016,06,06,13,01,22.10
2016,06,06,13,02,22.10
2016,06,06,13,03,22.10
2016,06,06,13,04,22.10
2016,06,06,13,05,22.10
2016,06,06,13,06,22.10
2016,06,06,13,07,22.10
2016,06,06,13,08,22.10
2016,06,06,13,09,22.00
2016,06,06,13,10,21.80
2016,06,06,13,11,21.60
2016,06,06,13,12,21.40
2016,06,06,13,13,21.30
2016,06,06,13,14,21.10
2016,06,06,13,15,20.90
2016,06,06,13,16,20.80
2016,06,06,13,17,20.70
2016,06,06,13,18,20.60
2016,06,06,13,19,20.50
2016,06,06,13,20,20.50
2016,06,06,13,21,20.50
2016,06,06,13,22,20.60
2016,06,06,13,23,20.60
2016,06,06,13,24,20.60
2016,06,06,13,25,20.50
2016,06,06,13,26,20.50
2016,06,06,13,27,20.40
2016,06,06,13,28,20.30
2016,06,06,13,29,20.30
2016,06,06,13,30,20.30
2016,06,06,13,31,20.30
2016,06,06,13,32,20.30
2016,06,06,13,33,20.20
2016,06,06,13,34,20.10
2016,06,06,13,35,19.90
2016,06,06,13,36,19.70
2016,06,06,13,37,19.60
2016,06,06,13,38,19.50
2016,06,06,13,39,19.50
2016,06,06,13,40,19.40
2016,06,06,13,41,19.40
2016,06,06,13,42,19.40
2016,06,06,13,43,19.50
2016,06,06,13,44,19.60
2016,06,06,13,45,19.60
2016,06,06,13,46,19.70
2016,06,06,13,47,19.70
2016,06,06,13,48,19.80
2016,06,06,13,49,19.80
2016,06,06,13,50,19.80
2016,06,06,13,51,19.90
2016,06,06,13,52,20.00
2016,06,06,13,53,20.00
2016,06,06,13,54,20.10
2016,06,06,13,55,20.20
2016,06,06,13,56,20.30
2016,06,06,13,57,20.30
2016,06,06,13,58,20.30
2016,06,06,13,59,20.30
2016,06,06,14,00,20.30
2016,06,06,14,01,20.30
2016,06,06,14,02,20.30
2016,06,06,14,03,20.40
2016,06,06,14,04,20.40
2016,06,06,14,05,20.50
2016,06,06,14,06,20.50
2016,06,06,14,07,20.60
2016,06,06,14,08,20.60
2016,06,06,14,09,20.70
2016,06,06,14,10,20.80
2016,06,06,14,11,20.80
2016,06,06,14,12,20.80
2016,06,06,14,13,20.90
2016,06,06,14,14,20.90
2016,06,06,14,15,21.00
2016,06,06,14,16,21.10
2016,06,06,14,17,21.10
2016,06,06,14,18,21.20
2016,06,06,14,19,21.20
2016,06,06,14,20,21.30
2016,06,06,14,21,21.30
2016,06,06,14,22,21.40
2016,06,06,14,23,21.40
2016,06,06,14,24,21.40
2016,06,06,14,25,21.40
2016,06,06,14,26,21.50
2016,06,06,14,27,21.50
2016,06,06,14,28,21.60
2016,06,06,14,29,21.60
2016,06,06,14,30,21.70
2016,06,06,14,31,21.80
2016,06,06,14,32,21.90
2016,06,06,14,33,21.90
2016,06,06,14,34,22.00
2016,06,06,14,35,22.00
2016,06,06,14,36,22.00
2016,06,06,14,37,22.10
2016,06,06,14,38,22.20
2016,06,06,14,39,22.20
2016,06,06,14,40,22.30
2016,06,06,14,41,22.30
2016,06,06,14,42,22.30
2016,06,06,14,43,22.30
2016,06,06,14,44,22.30
2016,06,06,14,45,22.30
2016,06,06,14,46,22.30
2016,06,06,14,47,22.30
2016,06,06,14,48,22.20
2016,06,06,14,49,22.20
2016,06,06,14,50,22.10
2016,06,06,14,51,22.00
2016,06,06,14,52,22.00
2016,06,06,14,53,21.90
2016,06,06,14,54,21.90
2016,06,06,14,55,21.90
2016,06,06,14,56,22.00
2016,06,06,14,57,22.00
2016,06,06,14,58,22.10
2016,06,06,14,59,22.20
2016,06,06,15,00,22.20
2016,06,06,15,01,22.30
2016,06,06,15,02,22.40
2016,06,06,15,03,22.40
2016,06,06,15,04,22.40
2016,06,06,15,05,22.50
2016,06,06,15,06,22.40
2016,06,06,15,07,22.40
2016,06,06,15,08,22.30
2016,06,06,15,09,22.20
2016,06,06,15,10,22.20
2016,06,06,15,11,22.20
2016,06,06,15,12,22.20
2016,06,06,15,13,22.20
2016,06,06,15,14,22.20
2016,06,06,15,15,22.10
2016,06,06,15,16,22.00
2016,06,06,15,17,22.00
2016,06,06,15,18,21.90
2016,06,06,15,19,21.90
2016,06,06,15,20,21.80
2016,06,06,15,21,21.80
2016,06,06,15,22,21.70
2016,06,06,15,23,21.70
2016,06,06,15,24,21.60
2016,06,06,15,25,21.60
2016,06,06,15,26,21.50
2016,06,06,15,27,21.40
2016,06,06,15,28,21.30
2016,06,06,15,29,21.10
2016,06,06,15,30,21.00
2016,06,06,15,31,20.90
2016,06,06,15,32,20.90
2016,06,06,15,33,20.80
2016,06,06,15,34,20.80
2016,06,06,15,35,20.80
2016,06,06,15,36,20.80
2016,06,06,15,37,20.90
2016,06,06,15,38,21.00
2016,06,06,15,39,21.10
2016,06,06,15,40,21.20
2016,06,06,15,41,21.20
2016,06,06,15,42,21.20
2016,06,06,15,43,21.20
2016,06,06,15,44,21.30
2016,06,06,15,45,21.30
2016,06,06,15,46,21.40
2016,06,06,15,47,21.50
2016,06,06,15,48,21.60
2016,06,06,15,49,21.70
2016,06,06,15,50,21.80
2016,06,06,15,51,21.90
2016,06,06,15,52,21.90
2016,06,06,15,53,22.00
2016,06,06,15,54,22.10
2016,06,06,15,55,22.10
2016,06,06,15,56,22.20
2016,06,06,15,57,22.30
2016,06,06,15,58,22.30
2016,06,06,15,59,22.40
2016,06,06,16,00,22.50
2016,06,06,16,01,22.60
2016,06,06,16,02,22.70
2016,06,06,16,03,22.80
2016,06,06,16,04,22.80
2016,06,06,16,05,22.90
2016,06,06,16,06,22.90
2016,06,06,16,07,22.90
2016,06,06,16,08,22.90
2016,06,06,16,09,22.80
2016,06,06,16,10,22.80
2016,06,06,16,11,22.80
2016,06,06,16,12,22.80
2016,06,06,16,13,22.90
2016,06,06,16,14,23.00
2016,06,06,16,15,23.10
2016,06,06,16,16,23.20
2016,06,06,16,17,23.30
2016,06,06,16,18,23.50
2016,06,06,16,19,23.60
2016,06,06,16,20,23.80
2016,06,06,16,21,24.00
2016,06,06,16,22,24.10
2016,06,06,16,23,24.30
2016,06,06,16,24,24.40
2016,06,06,16,25,24.60
2016,06,06,16,26,24.70
2016,06,06,16,27,24.80
2016,06,06,16,28,24.80
2016,06,06,16,29,24.90
2016,06,06,16,30,24.90
2016,06,06,16,31,25.00
2016,06,06,16,32,25.00
2016,06,06,16,33,25.10
2016,06,06,16,34,25.10
2016,06,06,16,35,25.10
2016,06,06,16,36,25.20
2016,06,06,16,37,25.20
2016,06,06,16,38,25.20
2016,06,06,16,39,25.20
2016,06,06,16,40,25.20
2016,06,06,16,41,25.30
2016,06,06,16,42,25.30
2016,06,06,16,43,25.30
2016,06,06,16,44,25.40
2016,06,06,16,45,25.40
2016,06,06,16,46,25.50
2016,06,06,16,47,25.50
2016,06,06,16,48,25.60
2016,06,06,16,49,25.70
2016,06,06,16,50,25.80
2016,06,06,16,51,25.90
2016,06,06,16,52,25.90
2016,06,06,16,53,26.00
2016,06,06,16,54,25.90
2016,06,06,16,55,25.90
2016,06,06,16,56,26.00
2016,06,06,16,57,25.90
2016,06,06,16,58,25.90
2016,06,06,16,59,25.80
2016,06,06,17,00,25.80
2016,06,06,17,01,25.70
2016,06,06,17,02,25.70
2016,06,06,17,03,25.70
2016,06,06,17,04,25.70
2016,06,06,17,05,25.60
2016,06,06,17,06,25.60
2016,06,06,17,07,25.60
2016,06,06,17,08,25.60
2016,06,06,17,09,25.60
2016,06,06,17,10,25.70
2016,06,06,17,11,25.70
2016,06,06,17,12,25.70
2016,06,06,17,13,25.70
2016,06,06,17,14,25.70
2016,06,06,17,15,25.70
2016,06,06,17,16,25.70
2016,06,06,17,17,25.70
2016,06,06,17,18,25.70
2016,06,06,17,19,25.70